Powrót do katalogu

STARLINK-30249

AktywnyŁącznośćVLEO
NORAD 57618·PAYLOAD·🇺🇸 United States

Wystrzelony Aug 11, 2023 z Cape Canaveral Space Force Station

Loading…

Następne Przeloty (najbliższe 24 godziny)

TLE

ŚwieżeSource: CelesTrak SupGP

Epoka: Sep 15, 2026, 01:30 UTC

1 57618C 23119S   26258.06298611  .00031646  00000+0  11471-2 0  2582
2 57618  43.0018  91.8480 0001620 267.0160  18.9144 15.27537386    11

Śledź STARLINK-30249 w czasie rzeczywistym z AllMySat

Download on the App Store